Terminal Aerodrome Forecast
Issued by NWS Twin Cities, MN

Home | Current Version | Previous Version | Graphics & Text | Print | Product List | Glossary On
Versions: 1 2 3 4 5 6 7 8 9 10 11 12 13 14 15 16 17 18 19 20 21 22 23 24
000
FTUS43 KMPX 231728
TAFSTC
TAF
KSTC 231728Z 2318/2418 23009KT P6SM FEW025 OVC035
     FM232200 04005KT P6SM BKN040
     FM240700 13006KT P6SM BKN100
     FM241000 16007KT P6SM SCT120
     FM241700 18012G18KT P6SM SCT250=

USA.gov is the U.S. government's official web portal to all federal, state and local government web resources and services.